Fitchburg, MA

6:31 PM EST on February 22, 2018 (GMT -0500)
Fitchburg Municipal

Weather History for KFIT - October, 2013

Change the Weather History Date:

Saturday, October 12, 2013

  Actual Average (KORH) Record (KORH)
Temperature  
Mean Temperature 50 °F -  
Max Temperature 57 °F 58 °F 87 °F (1938)
Min Temperature 44 °F 42 °F 29 °F (1929)
Degree Days  
Heating Degree Days 14    
Moisture  
Dew Point 50 °F    
Average Humidity 89    
Maximum Humidity 94    
Minimum Humidity 82    
Precipitation  
Precipitation 0.01 in - - ()
Sea Level Pressure  
Sea Level Pressure 30.33 in    
Wind  
Wind Speed 3 mph (NNE)    
Max Wind Speed 9 mph    
Max Gust Speed -    
Visibility 8 miles    
Events Rain    
Averages and records for this station are not official NWS values.
T = Trace of Precipitation, MM = Missing Value Source: NWS Daily Summary

Daily Weather History Graph

Daily Weather History Graph

Search for Another Location

Airport or City:

Trip Planner

Search our weather history database for the weather conditions in past years. The results will help you decide how hot, cold, wet, or windy it might be!

Date:

Astronomy

Oct. 12, 2013 Rise Set
Actual Time 6:56 AM EDT 6:09 PM EDT
Civil Twilight 6:28 AM EDT 6:37 PM EDT
Nautical Twilight 5:55 AM EDT 7:10 PM EDT
Astronomical Twilight 5:23 AM EDT 7:42 PM EDT
Moon 2:24 PM EDT (10/12) No Moon Set
Length of Visible Light 12h 09m
Length of Day
11h 12m
First Quarter, 58% of the Moon is Illuminated
Oct 12
First Quarter
Oct 18
Full
Oct 26
Last Quarter
Nov 3
New
Nov 10
First Quarter

Hourly Weather History & Observations

Time (EDT) Temp. Windchill Dew Point Humidity Pressure Visibility Wind Dir Wind Speed Gust Speed Precip Events Conditions
12:52 AM 46.9 °F - 45.0 °F 93% 30.18 in 10.0 mi Calm Calm - N/A   Clear
1:52 AM 48.0 °F - 45.0 °F 89% 30.19 in 10.0 mi Calm Calm - N/A   Clear
2:52 AM 44.1 °F - 42.1 °F 93% 30.19 in 10.0 mi Calm Calm - N/A   Clear
3:52 AM 46.0 °F 44.8 °F 43.0 °F 89% 30.21 in 10.0 mi NNW 3.5 mph - N/A   Clear
4:52 AM 46.0 °F 44.8 °F 44.1 °F 93% 30.22 in 10.0 mi NNW 3.5 mph - N/A   Clear
5:52 AM 46.0 °F - 44.1 °F 93% 30.23 in 10.0 mi Calm Calm - N/A   Clear
6:52 AM 46.9 °F - 43.0 °F 86% 30.26 in 10.0 mi Calm Calm - N/A   Clear
7:20 AM 51.8 °F - 46.4 °F 82% 30.26 in 10.0 mi NW 3.5 mph - N/A   Mostly Cloudy
7:52 AM 54.0 °F - 50.0 °F 86% 30.29 in 10.0 mi Variable 3.5 mph - N/A   Overcast
8:05 AM 53.6 °F - 50.0 °F 88% 30.29 in 10.0 mi Variable 5.8 mph - N/A   Overcast
8:52 AM 55.0 °F - 52.0 °F 89% 30.31 in 9.0 mi NNE 5.8 mph - N/A   Overcast
9:52 AM 55.9 °F - 52.0 °F 87% 30.32 in 9.0 mi NE 5.8 mph - N/A   Overcast
10:52 AM 57.0 °F - 53.1 °F 87% 30.34 in 6.0 mi ENE 8.1 mph - N/A   Overcast
11:52 AM 57.0 °F - 53.1 °F 87% 30.35 in 7.0 mi ENE 9.2 mph - N/A   Overcast
12:52 PM 57.0 °F - 53.1 °F 87% 30.35 in 5.0 mi NE 8.1 mph - N/A   Overcast
1:52 PM 57.0 °F - 53.1 °F 87% 30.35 in 5.0 mi NE 5.8 mph - N/A   Overcast
2:52 PM 55.9 °F - 53.1 °F 90% 30.36 in 5.0 mi NE 6.9 mph - N/A   Overcast
3:52 PM 55.9 °F - 53.1 °F 90% 30.36 in 6.0 mi NNE 4.6 mph - N/A   Overcast
4:52 PM 55.9 °F - 53.1 °F 90% 30.37 in 3.0 mi Variable 4.6 mph - N/A   Overcast
5:38 PM 55.4 °F - 51.8 °F 88% 30.37 in 5.0 mi ENE 5.8 mph - N/A   Overcast
5:52 PM 55.0 °F - 52.0 °F 89% 30.38 in 6.0 mi ENE 3.5 mph - N/A   Overcast
6:52 PM 54.0 °F - 52.0 °F 93% 30.38 in 5.0 mi Variable 3.5 mph - 0.00 in Rain Light Rain
7:52 PM 54.0 °F - 51.1 °F 90% 30.40 in 5.0 mi Variable 4.6 mph - 0.01 in   Overcast
8:14 PM 53.6 °F - 51.8 °F 94% 30.39 in 9.0 mi Variable 3.5 mph - N/A   Overcast
8:38 PM 53.6 °F - 51.8 °F 94% 30.40 in 10.0 mi Calm Calm - N/A   Overcast
8:52 PM 54.0 °F - 51.1 °F 90% 30.40 in 10.0 mi Calm Calm - N/A   Overcast
9:00 PM 53.6 °F - 50.0 °F 88% 30.40 in 10.0 mi NNE 3.5 mph - N/A   Overcast
9:52 PM 53.1 °F - 50.0 °F 89% 30.41 in 10.0 mi Calm Calm - N/A   Overcast
10:52 PM 53.1 °F - 48.9 °F 86% 30.42 in 10.0 mi Calm Calm - N/A   Overcast
11:52 PM 52.0 °F - 50.0 °F 93% 30.41 in 10.0 mi Calm Calm - N/A   Overcast